Oakdale, LA

12:36 AM CST on January 20, 2017 (GMT -0600)
Oakdale

Weather History for KACP - January, 2013

Change the Weather History Date:

Monday, January 7, 2013

  Actual Average (KPOE) Record (KPOE)
Temperature  
Mean Temperature 51 °F -  
Max Temperature 60 °F 58 °F 73 °F (2008)
Min Temperature 42 °F 38 °F 17 °F (2014)
Degree Days  
Heating Degree Days 14    
Growing Degree Days 1 (Base 50)    
Moisture  
Dew Point 43 °F    
Average Humidity 70    
Maximum Humidity 100    
Minimum Humidity 42    
Precipitation  
Precipitation 0.00 in - - ()
Sea Level Pressure  
Sea Level Pressure 30.26 in    
Wind  
Wind Speed 1 mph (ENE)    
Max Wind Speed 7 mph    
Max Gust Speed -    
Visibility 8 miles    
Events      
Averages and records for this station are not official NWS values.
T = Trace of Precipitation, MM = Missing Value Source: NWS Daily Summary

Daily Weather History Graph

Daily Weather History Graph

Search for Another Location

Airport or City:

Trip Planner

Search our weather history database for the weather conditions in past years. The results will help you decide how hot, cold, wet, or windy it might be!

Date:

Astronomy

Jan. 07, 2013 Rise Set
Actual Time 7:09 AM CST 5:25 PM CST
Civil Twilight 6:43 AM CST 5:51 PM CST
Nautical Twilight 6:13 AM CST 6:21 PM CST
Astronomical Twilight 5:43 AM CST 6:50 PM CST
Moon 2:38 AM CST (1/7) 1:33 PM CST (1/7)
Length of Visible Light 11h 08m
Length of Day
10h 15m
Waning Crescent, 22% of the Moon is Illuminated
Jan 7
Waning Crescent
Jan 11
New
Jan 18
First Quarter
Jan 26
Full
Feb 3
Last Quarter

Hourly Weather History & Observations

Time (CST) Temp. Windchill Dew Point Humidity Pressure Visibility Wind Dir Wind Speed Gust Speed Precip Events Conditions
12:15 AM - - - N/A% 30.33 in 5.0 mi Calm Calm - N/A   Haze
12:35 AM - - - N/A% 30.33 in 4.0 mi Calm Calm - N/A   Haze
12:55 AM - - - N/A% 30.32 in 5.0 mi Calm Calm - N/A   Haze
1:15 AM - - - N/A% 30.32 in 5.0 mi Calm Calm - N/A   Haze
1:35 AM - - - N/A% 30.32 in 5.0 mi Calm Calm - N/A   Haze
1:55 AM - - - N/A% 30.32 in 5.0 mi Calm Calm - N/A   Haze
2:15 AM - - - N/A% 30.31 in 5.0 mi Calm Calm - N/A   Haze
2:35 AM - - - N/A% 30.31 in 7.0 mi Calm Calm - N/A   Clear
2:55 AM - - - N/A% 30.31 in 7.0 mi Calm Calm - N/A   Clear
3:15 AM - - - N/A% 30.31 in 7.0 mi Calm Calm - N/A   Clear
3:35 AM - - - N/A% 30.31 in 7.0 mi Calm Calm - N/A   Clear
3:55 AM - - - N/A% 30.30 in 7.0 mi Calm Calm - N/A   Clear
4:15 AM - - - N/A% 30.29 in 10.0 mi Calm Calm - N/A   Clear
4:35 AM - - - N/A% 30.29 in 5.0 mi Calm Calm - N/A   Haze
4:55 AM - - - N/A% 30.29 in 5.0 mi Calm Calm - N/A   Haze
5:15 AM - - - N/A% 30.29 in 4.0 mi Calm Calm - N/A   Haze
5:35 AM - - - N/A% 30.29 in 3.0 mi Calm Calm - N/A   Clear
5:55 AM - - - N/A% 30.30 in 4.0 mi Calm Calm - N/A   Haze
6:35 AM - - - N/A% 30.30 in 5.0 mi NNE 3.5 mph - N/A   Haze
6:55 AM - - - N/A% 30.31 in 5.0 mi NE 3.5 mph - N/A   Haze
7:15 AM - - - N/A% 30.31 in 5.0 mi Calm Calm - N/A   Haze
7:35 AM - - - N/A% 30.32 in 5.0 mi Calm Calm - N/A   Haze
7:55 AM - - - N/A% 30.33 in 5.0 mi NNE 3.5 mph - N/A   Haze
8:15 AM - - - N/A% 30.33 in 7.0 mi NE 5.8 mph - N/A   Clear
8:35 AM - - - N/A% 30.33 in 10.0 mi NE 5.8 mph - N/A   Clear
8:55 AM 42.8 °F 40.1 °F 42.8 °F 100% 30.34 in 10.0 mi NE 4.6 mph - N/A   Clear
9:15 AM 44.6 °F 42.2 °F 44.6 °F 100% 30.34 in 10.0 mi ENE 4.6 mph - N/A   Clear
9:35 AM 46.4 °F 43.5 °F 46.4 °F 100% 30.34 in 10.0 mi NE 5.8 mph - N/A   Clear
9:55 AM 48.2 °F - 46.4 °F 93% 30.34 in 10.0 mi ENE 5.8 mph - N/A   Clear
10:15 AM 50.0 °F - 41.0 °F 71% 30.34 in 10.0 mi East 5.8 mph - N/A   Clear
10:35 AM 51.8 °F - 41.0 °F 67% 30.34 in 10.0 mi ENE 6.9 mph - N/A   Clear
10:55 AM 53.6 °F - 39.2 °F 58% 30.33 in 10.0 mi East 5.8 mph - N/A   Clear
11:15 AM 53.6 °F - 39.2 °F 58% 30.32 in 10.0 mi East 6.9 mph - N/A   Clear
11:35 AM 55.4 °F - 39.2 °F 54% 30.30 in 10.0 mi ENE 5.8 mph - N/A   Clear
11:55 AM 55.4 °F - 39.2 °F 54% 30.29 in 10.0 mi NE 4.6 mph - N/A   Clear
12:15 PM 57.2 °F - 39.2 °F 51% 30.27 in 10.0 mi NNE 3.5 mph - N/A   Clear
12:35 PM 57.2 °F - 37.4 °F 48% 30.26 in 10.0 mi ENE 4.6 mph - N/A   Clear
12:55 PM 57.2 °F - 39.2 °F 51% 30.24 in 10.0 mi ENE 5.8 mph - N/A   Clear
1:15 PM 59.0 °F - 39.2 °F 48% 30.24 in 10.0 mi NE 6.9 mph - N/A   Clear
1:35 PM 59.0 °F - 39.2 °F 48% 30.23 in 10.0 mi Calm Calm - N/A   Clear
1:55 PM 59.0 °F - 37.4 °F 45% 30.22 in 10.0 mi NNE 5.8 mph - N/A   Clear
2:15 PM 60.8 °F - 37.4 °F 42% 30.22 in 10.0 mi ENE 4.6 mph - N/A   Clear
2:35 PM 59.0 °F - 39.2 °F 48% 30.23 in 10.0 mi East 3.5 mph - N/A   Mostly Cloudy
2:55 PM 59.0 °F - 39.2 °F 48% 30.22 in 10.0 mi East 3.5 mph - N/A   Overcast
3:15 PM 59.0 °F - 39.2 °F 48% 30.21 in 10.0 mi Calm Calm - N/A   Overcast
3:35 PM 59.0 °F - 41.0 °F 51% 30.21 in 10.0 mi ENE 3.5 mph - N/A   Overcast
3:55 PM 57.2 °F - 42.8 °F 59% 30.21 in 10.0 mi NE 3.5 mph - N/A   Mostly Cloudy
4:15 PM 57.2 °F - 42.8 °F 59% 30.21 in 10.0 mi Calm Calm - N/A   Scattered Clouds
4:35 PM 55.4 °F - 44.6 °F 67% 30.21 in 10.0 mi Calm Calm - N/A   Clear
5:15 PM 51.8 °F - 42.8 °F 71% 30.20 in 10.0 mi Calm Calm - N/A   Clear
5:35 PM 50.0 °F - 46.4 °F 87% 30.20 in 10.0 mi Calm Calm - N/A   Clear
5:55 PM 48.2 °F - 48.2 °F 100% 30.20 in 10.0 mi Calm Calm - N/A   Clear
6:15 PM - - - N/A% 30.21 in 10.0 mi Calm Calm - N/A   Clear
6:35 PM - - - N/A% 30.21 in 10.0 mi Calm Calm - N/A   Scattered Clouds
6:55 PM - - - N/A% 30.20 in 10.0 mi Calm Calm - N/A   Mostly Cloudy
7:15 PM - - - N/A% 30.21 in 10.0 mi Calm Calm - N/A   Overcast
7:35 PM - - - N/A% 30.20 in 10.0 mi Calm Calm - N/A   Overcast
7:55 PM - - - N/A% 30.20 in 10.0 mi Calm Calm - N/A   Overcast
8:15 PM 50.0 °F - 50.0 °F 100% 30.19 in 10.0 mi Calm Calm - N/A   Overcast
8:35 PM 50.0 °F - 50.0 °F 100% 30.19 in 10.0 mi Calm Calm - N/A   Mostly Cloudy
8:55 PM 48.2 °F - 48.2 °F 100% 30.18 in 10.0 mi Calm Calm - N/A   Scattered Clouds
9:55 PM 48.2 °F - 48.2 °F 100% 30.17 in 10.0 mi Calm Calm - N/A   Clear
10:15 PM 46.4 °F - 46.4 °F 100% 30.17 in 10.0 mi Calm Calm - N/A   Clear
10:35 PM - - - N/A% 30.17 in 10.0 mi Calm Calm - N/A   Clear
10:55 PM - - - N/A% 30.18 in 10.0 mi Calm Calm - N/A   Mostly Cloudy
11:15 PM - - - N/A% 30.18 in 10.0 mi Calm Calm - N/A   Overcast
11:35 PM - - - N/A% 30.17 in 10.0 mi Calm Calm - N/A   Overcast
11:55 PM 50.0 °F - 50.0 °F 100% 30.16 in 10.0 mi Calm Calm - N/A   Overcast